Preview of NWS' New Version of Forecast
This preview is not operational and should not be used for support decisions.

Regional Weather Roundup (RWR)

Issued by National Weather Service (NWS)

                            
000
ASUS46 KPQR 201610
RWROR 

OREGON REGIONAL WEATHER ROUNDUP
NATIONAL WEATHER SERVICE PORTLAND OR
900 AM PDT SAT APR 20 2019

NOTE: "FAIR" INDICATES FEW OR NO CLOUDS BELOW 12,000 FEET WITH
NO SIGNIFICANT WEATHER AND/OR OBSTRUCTIONS TO VISIBILITY.

ORZ001>013-201700-
NORTHWEST OREGON

  
CITY           SKY/WX    TMP DP  RH WIND       PRES   REMARKS
ASTORIA        CLOUDY    51  44  77 NW5       30.03R                  
TILLAMOOK      CLOUDY    52  46  82 CALM      30.06R                  
NEWPORT        CLOUDY    50  45  81 N15G24    30.07R                  
PORTLAND       CLOUDY    53  45  74 NW13      30.00R                  
VANCOUVER WA   CLOUDY    52  45  77 NW8       29.99S                  
SCAPPOOSE      CLOUDY    54  45  71 NW5       30.00R                  
HILLSBORO      CLOUDY    51  44  77 NW8       30.00R                  
AURORA         CLOUDY    51  45  79 NW3       30.01R                  
MCMINNVILLE    CLOUDY    51  46  83 NW7       30.00S                  
SALEM          CLOUDY    51  45  79 NW8       30.00R                  
CORVALLIS      CLOUDY    51  46  83 NW8       30.02R                  
EUGENE         CLOUDY    52  47  83 N7        30.01R                  
$$

ORZ021-028-201700-
SOUTHWEST OREGON

  
CITY           SKY/WX    TMP DP  RH WIND       PRES   REMARKS
NORTH BEND     CLOUDY    51  44  77 N18       30.07R                  
BROOKINGS      CLOUDY    51  47  86 NW13      29.99R                  
ROSEBURG       CLOUDY    51  50  96 NW10      30.00R                  
SEXTON SUMMIT  FOG       40  39  97 VRB3      29.92R VSB 1/4          
GRANTS PASS    CLOUDY    50  46  87 NW5       29.99R                  
MEDFORD        LGT RAIN  50  47  89 NW6       29.93R                  
$$

ORZ014>016-041-201700-
COLUMBIA GORGE

  
CITY           SKY/WX    TMP DP  RH WIND       PRES   REMARKS
TROUTDALE      CLOUDY    52  45  77 VRB3      29.99S                  
HOOD RIVER     MOSUNNY   54  45  71 MISG      29.93S                  
THE DALLES     PTSUNNY   55  45  68 NW18G24   29.90S                  
$$

ORZ029>031-041-044-049-050-061>064-502-503-505>511-201700-
EASTERN OREGON

  
CITY           SKY/WX    TMP DP  RH WIND       PRES   REMARKS
MADRAS         CLOUDY    48  41  76 NW12      29.92S                  
REDMOND        LGT RAIN  49  45  86 N6        29.89S                  
BEND           LGT RAIN  46  45  93 NW9       29.89S                  
PRINEVILLE     CLOUDY    46  43  87 NW10G17   29.89S                  
KLAMATH FALLS  LGT RAIN  46  42  86 NW13      29.84R                  
LAKEVIEW       LGT RAIN  46  45  93 SE10      29.83F                  
HERMISTON      CLOUDY    56  52  86 W9        29.87S                  
PENDLETON      LGT RAIN  52  50  93 W10       29.86S                  
JOHN DAY       CLOUDY    47  45  92 W10       29.85S                  
MEACHAM        LGT RAIN  45  43  93 CALM      29.85S FOG              
LA GRANDE      LGT RAIN  48  45  89 NW9       29.85S                  
BAKER CITY     CLOUDY    51  44  77 NW13      29.82F                  
BURNS          CLOUDY    50  43  77 NW17      29.81F                  
ROME             N/A     59  32  36 E9        29.78F                  
ONTARIO        LGT RAIN  56  48  74 W6        29.78F                  
$$